,,Stat6,,Stat2,,Stat8,,Stat9,,Stat10,,Wind1,,Wind1,
time,status,PA1M_AVG,status,PR1M_SUM,status,RH1M_AVG,status,SR1M_AVG,status,TA1M_AVG,status,W1dAve1m,status,W1sAve1m,
2007-01-24, 17:12:00,VALID,920.391,VALID,0,VALID,81.0597,VALID,381.695,VALID,24.1194,VALID,192,VALID,0.791146,
2007-01-24, 17:13:01,VALID,920.389,VALID,0,VALID,81.0673,VALID,384.65,VALID,24.174,VALID,255,VALID,0.275073,
2007-01-24, 17:14:00,VALID,920.381,VALID,0,VALID,80.841,VALID,383.784,VALID,24.3074,VALID,273,VALID,0.482143,
2007-01-24, 17:15:00,VALID,920.374,VALID,0,VALID,80.8067,VALID,380.337,VALID,24.4657,VALID,268,VALID,0.798264,
2007-01-24, 17:16:00,VALID,920.384,VALID,0,VALID,80.078,VALID,375.378,VALID,24.4457,VALID,253,VALID,0.691315,
2007-01-24, 17:17:00,VALID,920.389,VALID,0,VALID,80.6134,VALID,389.15,VALID,24.5262,VALID,258,VALID,0.582031,
2007-01-24, 17:18:00,VALID,920.391,VALID,0,VALID,79.4537,VALID,371.914,VALID,24.6663,VALID,248,VALID,0.40625,
2007-01-24, 17:19:00,VALID,920.399,VALID,0,VALID,77.7624,VALID,368.195,VALID,24.5765,VALID,143,VALID,0.713415,
2007-01-24, 17:20:00,VALID,920.395,VALID,0,VALID,78.5864,VALID,388.793,VALID,24.3215,VALID,133,VALID,0.731286,
2007-01-24, 17:21:00,VALID,920.39,VALID,0,VALID,79.5058,VALID,386.959,VALID,24.2207,VALID,124,VALID,0.509337,
2007-01-24, 17:22:00,VALID,920.388,VALID,0,VALID,79.9089,VALID,354.373,VALID,24.2049,VALID,141,VALID,0.716546,
2007-01-24, 17:23:00,VALID,920.386,VALID,0,VALID,79.9153,VALID,353.897,VALID,24.1012,VALID,112,VALID,0.90918,
2007-01-24, 17:24:00,VALID,920.386,VALID,0,VALID,80.8181,VALID,354.407,VALID,24.1238,VALID,97,VALID,0.57984,
2007-01-24, 17:25:00,VALID,920.37,VALID,0,VALID,80.2141,VALID,356.801,VALID,24.1717,VALID,93,VALID,0.712754,
2007-01-24, 17:26:00,VALID,920.374,VALID,0,VALID,80.27,VALID,363.237,VALID,24.2824,VALID,50,VALID,0.449855,
2007-01-24, 17:27:00,VALID,920.362,VALID,0,VALID,80.8677,VALID,380.88,VALID,24.3923,VALID,246,VALID,0.363467,
2007-01-24, 17:28:00,VALID,920.346,VALID,0,VALID,80.3769,VALID,432.943,VALID,24.4621,VALID,199,VALID,0.350654,
2007-01-24, 17:29:00,VALID,920.342,VALID,0,VALID,80.326,VALID,601.206,VALID,24.6379,VALID,202,VALID,0.239826,
2007-01-24, 17:30:00,VALID,920.345,VALID,0,VALID,79.7004,VALID,859.621,VALID,24.8215,VALID,189,VALID,0.847098,
2007-01-24, 17:31:00,VALID,920.324,VALID,0,VALID,77.6442,VALID,958.211,VALID,24.9543,VALID,186,VALID,0.783156,
2007-01-24, 17:32:00,VALID,920.312,VALID,0,VALID,77.0274,VALID,946.715,VALID,25.0154,VALID,205,VALID,0.646341,
2007-01-24, 17:33:00,VALID,920.31,VALID,0,VALID,77.9494,VALID,564.103,VALID,25.1546,VALID,198,VALID,0.431402,
2007-01-24, 17:34:00,VALID,920.308,VALID,0,VALID,78.0155,VALID,493.718,VALID,25.3473,VALID,156,VALID,0.523615,
2007-01-24, 17:35:00,VALID,920.302,VALID,0,VALID,76.384,VALID,492.818,VALID,25.3411,VALID,127,VALID,1.1088,
2007-01-24, 17:36:00,VALID,920.302,VALID,0,VALID,76.2556,VALID,479.929,VALID,25.1631,VALID,122,VALID,1.00915,
2007-01-24, 17:37:00,VALID,920.292,VALID,0,VALID,77.0694,VALID,471.999,VALID,25.1434,VALID,103,VALID,0.58724,
2007-01-24, 17:38:00,VALID,920.301,VALID,0,VALID,76.9028,VALID,428.46,VALID,25.1401,VALID,144,VALID,0.935417,
2007-01-24, 17:39:00,VALID,920.287,VALID,0,VALID,77.1394,VALID,385.821,VALID,24.911,VALID,172,VALID,0.857558,
2007-01-24, 17:40:00,VALID,920.288,VALID,0,VALID,78.6971,VALID,362.728,VALID,24.7743,VALID,248,VALID,0.739769,
2007-01-24, 17:41:00,VALID,920.288,VALID,0,VALID,79.329,VALID,345.9,VALID,24.868,VALID,240,VALID,0.683594,
2007-01-24, 17:42:00,VALID,920.27,VALID,0,VALID,78.3347,VALID,323.96,VALID,24.9198,VALID,223,VALID,0.245998,
2007-01-24, 17:43:00,VALID,920.26,VALID,0,VALID,76.6396,VALID,306.691,VALID,24.8231,VALID,145,VALID,1.34623,
2007-01-24, 17:44:00,VALID,920.261,VALID,0,VALID,77.7141,VALID,291.357,VALID,24.5306,VALID,139,VALID,1.12176,
2007-01-24, 17:45:00,VALID,920.254,VALID,0,VALID,78.0727,VALID,280.591,VALID,24.4014,VALID,157,VALID,0.651042,
2007-01-24, 17:46:00,VALID,920.259,VALID,0,VALID,77.798,VALID,275.616,VALID,24.3758,VALID,154,VALID,0.504278,
2007-01-24, 17:47:00,VALID,920.245,VALID,0,VALID,78.1299,VALID,271.388,VALID,24.3758,VALID,147,VALID,0.339311,
2007-01-24, 17:48:00,VALID,920.251,VALID,0,VALID,78.0498,VALID,265.207,VALID,24.3629,VALID,142,VALID,0.658381,
2007-01-24, 17:49:00,VALID,920.242,VALID,0,VALID,79.2515,VALID,257.99,VALID,24.3687,VALID,35,VALID,0.5867,
2007-01-24, 17:50:00,VALID,920.263,VALID,0,VALID,80.3374,VALID,251.809,VALID,24.4757,VALID,306,VALID,0.27983,
2007-01-24, 17:51:00,VALID,920.27,VALID,0,VALID,79.0404,VALID,248.548,VALID,24.446,VALID,170,VALID,0.939631,
2007-01-24, 17:52:00,VALID,920.268,VALID,0,VALID,80.5587,VALID,246.969,VALID,24.3361,VALID,132,VALID,0.820313,
2007-01-24, 17:53:00,VALID,920.266,VALID,0,VALID,80.4862,VALID,247.648,VALID,24.2427,VALID,133,VALID,0.895898,
2007-01-24, 17:54:00,VALID,920.272,VALID,0,VALID,80.6108,VALID,246.884,VALID,24.2527,VALID,113,VALID,0.698401,
2007-01-24, 17:55:00,VALID,920.262,VALID,0,VALID,80.9033,VALID,244.745,VALID,24.3144,VALID,143,VALID,1.00056,
2007-01-24, 17:56:00,VALID,920.266,VALID,0,VALID,80.3578,VALID,248.48,VALID,24.2269,VALID,140,VALID,1.01246,
2007-01-24, 17:57:00,VALID,920.267,VALID,0,VALID,80.916,VALID,257.328,VALID,24.1981,VALID,132,VALID,0.683416,
2007-01-24, 17:58:00,VALID,920.262,VALID,0,VALID,80.5727,VALID,273.222,VALID,24.2266,VALID,165,VALID,0.609933,
2007-01-24, 17:59:00,VALID,920.254,VALID,0,VALID,80.1047,VALID,296.061,VALID,24.266,VALID,164,VALID,0.397436,
2007-01-24, 18:00:00,VALID,920.248,VALID,0,VALID,80.4493,VALID,323.943,VALID,24.4081,VALID,167,VALID,0.166243,
2007-01-24, 18:01:00,VALID,920.259,VALID,0,VALID,79.7589,VALID,353.592,VALID,24.5859,VALID,107,VALID,0.845806,
2007-01-24, 18:02:00,VALID,920.258,VALID,0,VALID,78.9794,VALID,623.451,VALID,24.6663,VALID,80,VALID,1.08739,
2007-01-24, 18:03:00,VALID,920.25,VALID,0,VALID,79.3316,VALID,1058.55,VALID,24.8273,VALID,95,VALID,1.17617,
2007-01-24, 18:04:00,VALID,920.233,VALID,0,VALID,79.1052,VALID,1007.15,VALID,25.0215,VALID,125,VALID,0.776786,
2007-01-24, 18:05:00,VALID,920.233,VALID,0,VALID,77.4267,VALID,1076.4,VALID,25.2868,VALID,74,VALID,1.0877,
2007-01-24, 18:06:00,VALID,920.223,VALID,0,VALID,75.9555,VALID,1043.18,VALID,25.6091,VALID,87,VALID,0.686738,
2007-01-24, 18:07:00,VALID,920.214,VALID,0,VALID,74.895,VALID,1052.9,VALID,25.9873,VALID,72,VALID,0.611579,
2007-01-24, 18:08:00,VALID,920.204,VALID,0,VALID,72.025,VALID,918.748,VALID,26.3155,VALID,80,VALID,1.16914,
2007-01-24, 18:09:00,VALID,920.205,VALID,0,VALID,71.2493,VALID,891.646,VALID,26.3015,VALID,143,VALID,0.4375,
2007-01-24, 18:10:00,VALID,920.194,VALID,0,VALID,72.0911,VALID,771.405,VALID,26.4528,VALID,224,VALID,0.518532,
2007-01-24, 18:11:00,VALID,920.185,VALID,0,VALID,71.2925,VALID,657.786,VALID,26.6119,VALID,88,VALID,0.956845,
2007-01-24, 18:12:00,VALID,920.175,VALID,0,VALID,71.0611,VALID,460.435,VALID,26.6565,VALID,100,VALID,1.39286,
2007-01-24, 18:13:00,VALID,920.163,VALID,0,VALID,71.0713,VALID,524.062,VALID,26.5049,VALID,79,VALID,1.84821,
2007-01-24, 18:14:00,VALID,920.146,VALID,0,VALID,72.7574,VALID,621.753,VALID,26.3296,VALID,94,VALID,1.48114,
2007-01-24, 18:15:00,VALID,920.134,VALID,0,VALID,72.5692,VALID,571.558,VALID,26.2391,VALID,73,VALID,1.18502,
2007-01-24, 18:16:00,VALID,920.109,VALID,0,VALID,72.3276,VALID,907.965,VALID,26.2068,VALID,69,VALID,1.60356,
2007-01-24, 18:17:00,VALID,920.085,VALID,0,VALID,72.8451,VALID,1053.39,VALID,26.2262,VALID,73,VALID,0.991997,
2007-01-24, 18:18:00,VALID,920.073,VALID,0,VALID,71.6702,VALID,665.258,VALID,26.3742,VALID,66,VALID,1.36328,
2007-01-24, 18:19:00,VALID,920.063,VALID,0,VALID,72.3912,VALID,461.947,VALID,26.2485,VALID,112,VALID,1.13063,
2007-01-24, 18:20:00,VALID,920.043,VALID,0,VALID,73.6602,VALID,382.697,VALID,26.1425,VALID,86,VALID,0.524368,
2007-01-24, 18:21:00,VALID,920.032,VALID,0,VALID,71.7503,VALID,331.296,VALID,25.8622,VALID,142,VALID,1.77292,
2007-01-24, 18:22:00,VALID,920.03,VALID,0,VALID,74.2731,VALID,307.098,VALID,25.4714,VALID,138,VALID,1.11559,
2007-01-24, 18:23:00,VALID,920.022,VALID,0,VALID,74.75,VALID,291.833,VALID,25.2839,VALID,132,VALID,1.00707,
2007-01-24, 18:24:00,VALID,920.026,VALID,0,VALID,75.1391,VALID,276.601,VALID,25.2923,VALID,120,VALID,0.834413,
2007-01-24, 18:25:00,VALID,920.019,VALID,0,VALID,74.6063,VALID,265.801,VALID,25.1944,VALID,151,VALID,1.1753,
2007-01-24, 18:26:00,VALID,920.02,VALID,0,VALID,75.8207,VALID,255.663,VALID,25.0564,VALID,144,VALID,0.60061,
2007-01-24, 18:27:00,VALID,920.009,VALID,0,VALID,76.7223,VALID,245.356,VALID,25.0984,VALID,115,VALID,0.504542,
2007-01-24, 18:28:00,VALID,920.01,VALID,0,VALID,76.8825,VALID,247.784,VALID,25.1922,VALID,110,VALID,0.5242,
2007-01-24, 18:29:00,VALID,919.983,VALID,0,VALID,75.0005,VALID,271.608,VALID,25.1757,VALID,160,VALID,0.558408,
2007-01-24, 18:30:00,VALID,919.974,VALID,0,VALID,75.7393,VALID,311.598,VALID,25.1566,VALID,158,VALID,0.623047,
2007-01-24, 18:31:00,VALID,919.962,VALID,0,VALID,76.9829,VALID,341.111,VALID,25.0887,VALID,137,VALID,0.476563,
2007-01-24, 18:32:00,VALID,919.953,VALID,0,VALID,77.2627,VALID,351.452,VALID,25.1757,VALID,148,VALID,0.477865,
2007-01-24, 18:33:00,VALID,919.953,VALID,0,VALID,76.9308,VALID,354.339,VALID,25.2019,VALID,174,VALID,0.186592,
2007-01-24, 18:34:00,VALID,919.951,VALID,0,VALID,77.5374,VALID,349.754,VALID,25.3825,VALID,174,VALID,0.087843,
2007-01-24, 18:35:00,VALID,919.941,VALID,0,VALID,77.489,VALID,334.573,VALID,25.6136,VALID,198,VALID,0.285937,
2007-01-24, 18:36:00,VALID,919.94,VALID,0,VALID,75.9631,VALID,333.521,VALID,25.7468,VALID,132,VALID,0.535528,
2007-01-24, 18:37:00,VALID,919.936,VALID,0,VALID,75.5524,VALID,341.518,VALID,25.6534,VALID,129,VALID,0.569679,
2007-01-24, 18:38:00,VALID,919.924,VALID,0,VALID,75.2574,VALID,353.184,VALID,25.5131,VALID,124,VALID,0.455602,
2007-01-24, 18:39:00,VALID,919.927,VALID,0,VALID,76.5137,VALID,364.884,VALID,25.5196,VALID,145,VALID,0.515625,
2007-01-24, 18:40:00,VALID,919.931,VALID,0,VALID,76.0025,VALID,370.012,VALID,25.5076,VALID,186,VALID,0.450347,
2007-01-24, 18:41:00,VALID,919.926,VALID,0,VALID,76.1132,VALID,379.182,VALID,25.5306,VALID,168,VALID,0.658794,
2007-01-24, 18:42:00,VALID,919.927,VALID,0,VALID,75.6999,VALID,402.208,VALID,25.3883,VALID,114,VALID,0.61942,
2007-01-24, 18:43:00,VALID,919.909,VALID,0,VALID,77.1025,VALID,395.059,VALID,25.3389,VALID,144,VALID,0.740007,
2007-01-24, 18:44:00,VALID,919.902,VALID,0,VALID,76.4272,VALID,388.301,VALID,25.2161,VALID,133,VALID,1.04167,
2007-01-24, 18:45:00,VALID,919.895,VALID,0,VALID,76.9155,VALID,421.872,VALID,25.175,VALID,158,VALID,0.947976,
2007-01-24, 18:46:00,VALID,919.881,VALID,0,VALID,75.6223,VALID,389.438,VALID,25.0522,VALID,138,VALID,1.03544,
2007-01-24, 18:47:00,VALID,919.873,VALID,0,VALID,76.9181,VALID,361.42,VALID,24.9518,VALID,133,VALID,0.919331,
2007-01-24, 18:48:00,VALID,919.872,VALID,0,VALID,77.8006,VALID,359.094,VALID,24.9899,VALID,162,VALID,0.528888,
2007-01-24, 18:49:00,VALID,919.848,VALID,0,VALID,78.1109,VALID,351.639,VALID,25.0742,VALID,154,VALID,0.27846,
2007-01-24, 18:50:00,VALID,919.822,VALID,0,VALID,78.3537,VALID,342.707,VALID,25.3302,VALID,138,VALID,0.213356,
2007-01-24, 18:51:00,VALID,919.807,VALID,0,VALID,79.1485,VALID,333.775,VALID,25.5238,VALID,125,VALID,0.626453,
2007-01-24, 18:52:00,VALID,919.786,VALID,0,VALID,77.9761,VALID,332.807,VALID,25.5041,VALID,154,VALID,0.483648,
2007-01-24, 18:53:00,VALID,919.774,VALID,0,VALID,77.8934,VALID,339.498,VALID,25.4879,VALID,135,VALID,0.36543,
2007-01-24, 18:54:00,VALID,919.782,VALID,0,VALID,78.6259,VALID,362.405,VALID,25.5306,VALID,155,VALID,0.37314,
2007-01-24, 18:55:00,VALID,919.765,VALID,0,VALID,79.0506,VALID,351.588,VALID,25.6947,VALID,169,VALID,0.275484,
2007-01-24, 18:56:00,VALID,919.757,VALID,0,VALID,78.3029,VALID,337.358,VALID,25.8467,VALID,161,VALID,0.28316,
2007-01-24, 18:57:00,VALID,919.745,VALID,0,VALID,77.4433,VALID,326.338,VALID,25.944,VALID,244,VALID,0.571766,
2007-01-24, 18:58:00,VALID,919.734,VALID,0,VALID,76.9601,VALID,322.211,VALID,26.0927,VALID,226,VALID,0.618608,
2007-01-24, 18:59:00,VALID,919.72,VALID,0,VALID,76.7426,VALID,320.87,VALID,26.0076,VALID,127,VALID,0.231179,
2007-01-24, 19:00:00,VALID,919.725,VALID,0,VALID,76.7922,VALID,511.225,VALID,26.0244,VALID,139,VALID,0.487464,
2007-01-24, 19:01:00,VALID,919.722,VALID,0,VALID,76.3802,VALID,472.577,VALID,25.9821,VALID,159,VALID,0.418324,
2007-01-24, 19:02:00,VALID,919.714,VALID,0,VALID,76.5404,VALID,393.565,VALID,25.9996,VALID,241,VALID,0.920455,
2007-01-24, 19:03:00,VALID,919.717,VALID,0,VALID,76.4196,VALID,598.337,VALID,26.0474,VALID,280,VALID,0.621875,
2007-01-24, 19:04:00,VALID,919.711,VALID,0,VALID,76.6701,VALID,991.799,VALID,26.1473,VALID,263,VALID,0.4749,
2007-01-24, 19:05:00,VALID,919.703,VALID,0,VALID,76.0165,VALID,960.928,VALID,26.2536,VALID,184,VALID,0.398785,
2007-01-24, 19:06:00,VALID,919.688,VALID,0,VALID,75.1912,VALID,1092.95,VALID,26.4272,VALID,126,VALID,0.489462,
2007-01-24, 19:07:00,VALID,919.672,VALID,0,VALID,73.1109,VALID,1120.29,VALID,26.6868,VALID,89,VALID,0.839658,
2007-01-24, 19:08:00,VALID,919.645,VALID,0,VALID,72.6086,VALID,1137.78,VALID,26.8,VALID,144,VALID,1.29978,
2007-01-24, 19:09:00,VALID,919.647,VALID,0,VALID,71.791,VALID,1147.77,VALID,26.5963,VALID,176,VALID,1.06002,
2007-01-24, 19:10:00,VALID,919.6,VALID,0,VALID,70.9365,VALID,1143.23,VALID,26.6419,VALID,84,VALID,0.700462,
2007-01-24, 19:11:00,VALID,919.584,VALID,0,VALID,70.9454,VALID,1128.05,VALID,26.9865,VALID,334,VALID,0.592988,
2007-01-24, 19:12:01,VALID,919.549,VALID,0,VALID,68.5408,VALID,1106.98,VALID,27.2329,VALID,1,VALID,0.532393,
2007-01-24, 19:13:00,VALID,919.514,VALID,0,VALID,67.8693,VALID,787.877,VALID,27.3519,VALID,36,VALID,0.897905,
2007-01-24, 19:14:00,VALID,919.509,VALID,0,VALID,68.0652,VALID,501.716,VALID,27.2164,VALID,88,VALID,1.23935,
2007-01-24, 19:15:00,VALID,919.507,VALID,0,VALID,69.0939,VALID,589.54,VALID,26.7469,VALID,188,VALID,1.46038,
2007-01-24, 19:16:00,VALID,919.507,VALID,0,VALID,71.365,VALID,364.035,VALID,26.1288,VALID,237,VALID,1.33798,
2007-01-24, 19:17:00,VALID,919.515,VALID,0,VALID,72.4115,VALID,347.394,VALID,26.1123,VALID,278,VALID,1.27053,
2007-01-24, 19:18:00,VALID,919.529,VALID,0,VALID,72.5934,VALID,316.557,VALID,26.2649,VALID,275,VALID,0.320122,
2007-01-24, 19:19:01,VALID,919.524,VALID,0,VALID,73.3131,VALID,296.689,VALID,26.3774,VALID,262,VALID,1.20713,
2007-01-24, 19:20:00,VALID,919.523,VALID,0,VALID,75.293,VALID,281.797,VALID,26.3903,VALID,276,VALID,1.65643,
2007-01-24, 19:21:00,VALID,919.503,VALID,0,VALID,76.3204,VALID,281.05,VALID,26.1453,VALID,290,VALID,1.77056,
2007-01-24, 19:22:00,VALID,919.484,VALID,0,VALID,79.7296,VALID,267.227,VALID,25.7772,VALID,282,VALID,1.867,
2007-01-24, 19:23:00,VALID,919.499,VALID,0,VALID,81.4514,VALID,274.512,VALID,25.6605,VALID,283,VALID,1.27653,
2007-01-24, 19:24:00,VALID,919.483,VALID,0,VALID,81.5111,VALID,307.37,VALID,25.7174,VALID,258,VALID,1.10879,
2007-01-24, 19:25:00,VALID,919.49,VALID,0,VALID,81.1576,VALID,369.707,VALID,25.7701,VALID,273,VALID,1.6131,
2007-01-24, 19:26:01,VALID,919.481,VALID,0,VALID,79.3354,VALID,375.99,VALID,25.7474,VALID,271,VALID,1.3404,
2007-01-24, 19:27:01,VALID,919.462,VALID,0,VALID,81.1627,VALID,358.992,VALID,25.7439,VALID,274,VALID,1.51753,
2007-01-24, 19:28:01,VALID,919.448,VALID,0,VALID,77.1228,VALID,566.684,VALID,25.7869,VALID,268,VALID,2.23196,
2007-01-24, 19:29:00,VALID,919.434,VALID,0,VALID,77.7383,VALID,670.93,VALID,25.7054,VALID,254,VALID,1.28032,
2007-01-24, 19:30:00,VALID,919.41,VALID,0,VALID,77.0465,VALID,427.713,VALID,25.7571,VALID,257,VALID,1.54512,
2007-01-24, 19:31:00,VALID,919.386,VALID,0,VALID,78.3982,VALID,492.937,VALID,25.7413,VALID,251,VALID,1.14281,
2007-01-24, 19:32:00,VALID,919.381,VALID,0,VALID,78.9603,VALID,1063.76,VALID,25.7797,VALID,246,VALID,0.962612,
2007-01-24, 19:33:00,VALID,919.373,VALID,0,VALID,78.9094,VALID,340.381,VALID,26.0225,VALID,302,VALID,0.905488,
2007-01-24, 19:34:00,VALID,919.372,VALID,0,VALID,77.9901,VALID,251.265,VALID,26.2365,VALID,277,VALID,0.995486,
2007-01-24, 19:35:01,VALID,919.355,VALID,0,VALID,76.7884,VALID,232.637,VALID,26.336,VALID,283,VALID,1.02058,
2007-01-24, 19:36:00,VALID,919.344,VALID,0,VALID,77.4293,VALID,219.749,VALID,26.4786,VALID,271,VALID,0.50918,
2007-01-24, 19:37:00,VALID,919.328,VALID,0,VALID,76.1411,VALID,204.942,VALID,26.5946,VALID,272,VALID,0.802379,
2007-01-24, 19:38:00,VALID,919.33,VALID,0,VALID,76.9384,VALID,192.919,VALID,26.692,VALID,292,VALID,0.581845,
2007-01-24, 19:39:00,VALID,919.311,VALID,0,VALID,75.9212,VALID,182.051,VALID,26.7207,VALID,322,VALID,0.647294,
2007-01-24, 19:40:01,VALID,919.319,VALID,0,VALID,76.2123,VALID,174.529,VALID,26.6467,VALID,268,VALID,0.675586,
2007-01-24, 19:41:00,VALID,919.301,VALID,0,VALID,76.8418,VALID,174.155,VALID,26.5817,VALID,271,VALID,1.07617,
2007-01-24, 19:42:00,VALID,919.294,VALID,0,VALID,76.8876,VALID,179.657,VALID,26.5339,VALID,278,VALID,0.552604,
2007-01-24, 19:43:01,VALID,919.291,VALID,0,VALID,75.677,VALID,180.71,VALID,26.379,VALID,217,VALID,0.351563,
2007-01-24, 19:44:00,VALID,919.27,VALID,0,VALID,75.7241,VALID,177.382,VALID,26.3008,VALID,190,VALID,0.0952744,
2007-01-24, 19:45:00,VALID,919.268,VALID,0,VALID,76.6472,VALID,174.835,VALID,26.3331,VALID,233,VALID,0.317264,
2007-01-24, 19:46:00,VALID,919.257,VALID,0,VALID,78.8395,VALID,169.486,VALID,26.337,VALID,280,VALID,1.00852,
2007-01-24, 19:47:00,VALID,919.247,VALID,0,VALID,79.5618,VALID,163.763,VALID,26.2727,VALID,257,VALID,0.447266,
2007-01-24, 19:48:01,VALID,919.208,VALID,0,VALID,79.6787,VALID,158.975,VALID,26.2106,VALID,274,VALID,0.302649,
2007-01-24, 19:49:00,VALID,919.183,VALID,0,VALID,78.5203,VALID,148.48,VALID,26.1683,VALID,209,VALID,0.194444,
2007-01-24, 19:50:00,VALID,919.175,VALID,0,VALID,77.3415,VALID,133.707,VALID,26.0975,VALID,155,VALID,0.154883,
2007-01-24, 19:51:00,VALID,919.164,VALID,0,VALID,77.2017,VALID,123.485,VALID,26.0041,VALID,155,VALID,0.134411,
2007-01-24, 19:52:01,VALID,919.15,VALID,0,VALID,77.7739,VALID,118.441,VALID,25.9814,VALID,156,VALID,0.127232,
2007-01-24, 19:53:01,VALID,919.137,VALID,0,VALID,78.2774,VALID,116.709,VALID,25.9743,VALID,258,VALID,0.339757,
2007-01-24, 19:54:00,VALID,919.148,VALID,0,VALID,79.8339,VALID,115.758,VALID,25.91,VALID,271,VALID,0.448633,
2007-01-24, 19:55:00,VALID,919.144,VALID,0,VALID,80.9173,VALID,116.285,VALID,25.7972,VALID,271,VALID,0.716146,
2007-01-24, 19:56:00,VALID,919.129,VALID,0,VALID,80.7507,VALID,116.879,VALID,25.6941,VALID,279,VALID,0.776456,
2007-01-24, 19:57:00,VALID,919.116,VALID,0,VALID,80.9796,VALID,116.522,VALID,25.6165,VALID,279,VALID,1.0798,
2007-01-24, 19:58:00,VALID,919.113,VALID,0,VALID,80.9987,VALID,119.256,VALID,25.5031,VALID,270,VALID,1.24466,
2007-01-24, 19:59:00,VALID,919.104,VALID,0,VALID,80.092,VALID,126.558,VALID,25.294,VALID,262,VALID,2.0748,
2007-01-24, 20:00:00,VALID,919.087,VALID,0,VALID,80.8537,VALID,138.75,VALID,25.0991,VALID,270,VALID,2.43457,
2007-01-24, 20:01:01,VALID,919.082,VALID,0,VALID,81.1792,VALID,156.971,VALID,24.8994,VALID,277,VALID,2.65234,
2007-01-24, 20:02:01,VALID,919.078,VALID,0,VALID,81.0101,VALID,178.282,VALID,24.786,VALID,274,VALID,1.21439,
2007-01-24, 20:03:00,VALID,919.066,VALID,0,VALID,81.6993,VALID,195.381,VALID,24.732,VALID,289,VALID,0.863839,
2007-01-24, 20:04:01,VALID,919.051,VALID,0,VALID,82.4928,VALID,212.515,VALID,24.7285,VALID,269,VALID,1.30913,
2007-01-24, 20:05:00,VALID,919.048,VALID,0,VALID,82.2639,VALID,228.902,VALID,24.6868,VALID,267,VALID,1.121,
2007-01-24, 20:06:00,VALID,919.04,VALID,0,VALID,82.433,VALID,237.324,VALID,24.7039,VALID,277,VALID,1.2099,
2007-01-24, 20:07:00,VALID,919.043,VALID,0,VALID,82.6479,VALID,230.905,VALID,24.7129,VALID,270,VALID,1.58448,
2007-01-24, 20:08:00,VALID,919.038,VALID,0,VALID,82.227,VALID,219.273,VALID,24.6939,VALID,271,VALID,1.55134,
2007-01-24, 20:09:00,VALID,919.031,VALID,0,VALID,82.9379,VALID,213.245,VALID,24.6095,VALID,245,VALID,1.18598,
2007-01-24, 20:10:00,VALID,919.016,VALID,0,VALID,83.1121,VALID,213.5,VALID,24.5749,VALID,254,VALID,1.47656,
2007-01-24, 20:11:00,VALID,918.993,VALID,0,VALID,83.7911,VALID,221.77,VALID,24.5549,VALID,288,VALID,1.71023,
2007-01-24, 20:12:01,VALID,918.962,VALID,0,VALID,83.8954,VALID,240.007,VALID,24.5749,VALID,272,VALID,1.58487,
2007-01-24, 20:13:01,VALID,918.947,VALID,0,VALID,84.8275,VALID,270.963,VALID,24.6105,VALID,273,VALID,1.89769,
2007-01-24, 20:14:01,VALID,918.927,VALID,0,VALID,84.3239,VALID,318.119,VALID,24.6066,VALID,274,VALID,2.25502,
2007-01-24, 20:15:01,VALID,918.926,VALID,0,VALID,83.7695,VALID,394.618,VALID,24.5591,VALID,272,VALID,1.98691,
2007-01-24, 20:16:00,VALID,918.92,VALID,0,VALID,84.7842,VALID,303.991,VALID,24.4877,VALID,252,VALID,1.90949,
2007-01-24, 20:17:00,VALID,918.901,VALID,0,VALID,83.6118,VALID,293.921,VALID,24.3692,VALID,180,VALID,0.588867,
2007-01-24, 20:18:00,VALID,918.869,VALID,0,VALID,84.7308,VALID,293.683,VALID,24.4474,VALID,254,VALID,1.21621,
2007-01-24, 20:19:00,VALID,918.849,VALID,0,VALID,84.844,VALID,314.298,VALID,24.5898,VALID,270,VALID,1.6993,
2007-01-24, 20:20:01,VALID,918.825,VALID,0,VALID,83.8509,VALID,328.324,VALID,24.6503,VALID,285,VALID,1.49423,
2007-01-24, 20:21:01,VALID,918.804,VALID,0,VALID,84.0442,VALID,337.307,VALID,24.692,VALID,118,VALID,0.813388,
2007-01-24, 20:22:00,VALID,918.786,VALID,0,VALID,85.2369,VALID,341.841,VALID,24.881,VALID,244,VALID,0.233103,
2007-01-24, 20:23:00,VALID,918.762,VALID,0,VALID,85.0347,VALID,338.734,VALID,25.0516,VALID,249,VALID,0.19931,
2007-01-24, 20:24:01,VALID,918.757,VALID,0,VALID,83.8661,VALID,324.147,VALID,25.2581,VALID,279,VALID,0.75705,
2007-01-24, 20:25:00,VALID,918.737,VALID,0,VALID,81.2009,VALID,314.077,VALID,25.4359,VALID,149,VALID,0.54347,
2007-01-24, 20:26:00,VALID,918.722,VALID,0,VALID,80.7494,VALID,336.237,VALID,25.4882,VALID,206,VALID,0.649368,
2007-01-24, 20:27:00,VALID,918.728,VALID,0,VALID,81.829,VALID,401.614,VALID,25.6101,VALID,277,VALID,0.951367,
2007-01-24, 20:28:00,VALID,918.72,VALID,0,VALID,81.281,VALID,619.597,VALID,25.7956,VALID,249,VALID,0.370458,
2007-01-24, 20:29:01,VALID,918.71,VALID,0,VALID,79.2973,VALID,688.063,VALID,25.9918,VALID,240,VALID,0.489583,
2007-01-24, 20:30:01,VALID,918.694,VALID,0,VALID,76.749,VALID,664.935,VALID,26.0884,VALID,174,VALID,0.224085,
2007-01-24, 20:31:00,VALID,918.673,VALID,0,VALID,76.3942,VALID,589.948,VALID,26.3862,VALID,230,VALID,0.62128,
2007-01-24, 20:32:00,VALID,918.656,VALID,0,VALID,75.513,VALID,463.56,VALID,26.5543,VALID,243,VALID,0.330788,
2007-01-24, 20:33:00,VALID,918.645,VALID,0,VALID,73.9476,VALID,534.947,VALID,26.7289,VALID,180,VALID,0.347942,
2007-01-24, 20:34:00,VALID,918.649,VALID,0,VALID,73.0028,VALID,476.431,VALID,26.8441,VALID,158,VALID,0.214931,
2007-01-24, 20:35:00,VALID,918.619,VALID,0,VALID,72.2767,VALID,362.999,VALID,27.0222,VALID,82,VALID,0.570494,
2007-01-24, 20:36:00,VALID,918.614,VALID,0,VALID,72.2856,VALID,345.645,VALID,27.1225,VALID,96,VALID,0.332217,
2007-01-24, 20:37:01,VALID,918.587,VALID,0,VALID,70.9085,VALID,357.022,VALID,27.0963,VALID,354,VALID,0.659702,
2007-01-24, 20:38:00,VALID,918.544,VALID,0,VALID,72.1534,VALID,380.235,VALID,26.9468,VALID,306,VALID,0.165737,
2007-01-24, 20:39:01,VALID,918.534,VALID,0,VALID,73.1478,VALID,437.426,VALID,26.856,VALID,289,VALID,0.644717,
2007-01-24, 20:40:00,VALID,918.502,VALID,0,VALID,73.4161,VALID,730.974,VALID,26.8631,VALID,336,VALID,0.373698,
2007-01-24, 20:41:01,VALID,918.48,VALID,0,VALID,72.1063,VALID,580.473,VALID,26.9727,VALID,335,VALID,0.349085,
2007-01-24, 20:42:01,VALID,918.464,VALID,0,VALID,71.8724,VALID,545.271,VALID,27.0665,VALID,134,VALID,0.394055,
2007-01-24, 20:43:01,VALID,918.453,VALID,0,VALID,71.5239,VALID,691.425,VALID,27.1341,VALID,315,VALID,0.437137,
2007-01-24, 20:44:01,VALID,918.462,VALID,0,VALID,71.1285,VALID,771.626,VALID,27.0604,VALID,216,VALID,0.641555,
2007-01-24, 20:45:01,VALID,918.461,VALID,0,VALID,70.6542,VALID,898.286,VALID,26.8812,VALID,176,VALID,0.485102,